カタログに戻る

TIANQI 34

運用中通信LEO
NORAD 62366·PAYLOAD·🇨🇳 China

打ち上げ Dec 19, 2024 から Yellow Sea Launch Area

Loading…

次のパス (今後24時間)

TLE

最新Source: Space-Track

元期: Sep 14, 2026, 13:01 UTC

1 62366U 24245B   26257.54293091 -.00000012  00000-0  80048-4 0  9993
2 62366  44.9800 284.0927 0002521  85.8274 274.2847 13.99243591 88844

AllMySatでTIANQI 34をリアルタイム追跡

Download on the App Store